TimeCDT,TemperatureF,Dew PointF,Humidity,Sea Level PressureIn,VisibilityMPH,Wind Direction,Wind SpeedMPH,Gust SpeedMPH,PrecipitationIn,Events,Conditions,WindDirDegrees,DateUTC
12:15 AM,63.1,62.6,98,30.15,5.0,Calm,Calm,-,N/A,,Clear,0,2013-09-05 05:15:00
12:35 AM,62.6,62.2,99,30.15,4.0,Calm,Calm,-,N/A,,Clear,0,2013-09-05 05:35:00
12:55 AM,62.6,62.2,99,30.15,5.0,Calm,Calm,-,N/A,,Clear,0,2013-09-05 05:55:00
1:15 AM,62.4,61.9,98,30.14,10.0,Calm,Calm,-,N/A,,Clear,0,2013-09-05 06:15:00
1:35 AM,62.2,61.7,98,30.14,7.0,Calm,Calm,-,N/A,,Clear,0,2013-09-05 06:35:00
1:55 AM,62.1,61.5,98,30.13,5.0,Calm,Calm,-,N/A,,Clear,0,2013-09-05 06:55:00
2:15 AM,61.5,61.0,98,30.13,4.0,Calm,Calm,-,N/A,,Clear,0,2013-09-05 07:15:00
2:35 AM,61.3,61.0,99,30.13,5.0,Calm,Calm,-,N/A,,Clear,0,2013-09-05 07:35:00
2:55 AM,61.0,60.8,99,30.13,5.0,Calm,Calm,-,N/A,,Clear,0,2013-09-05 07:55:00
3:15 AM,60.6,60.4,99,30.14,2.5,Calm,Calm,-,N/A,,Clear,0,2013-09-05 08:15:00
3:35 AM,60.4,60.3,99,30.14,3.0,Calm,Calm,-,N/A,,Clear,0,2013-09-05 08:35:00
3:55 AM,60.3,60.1,99,30.14,2.5,Calm,Calm,-,N/A,,Clear,0,2013-09-05 08:55:00
4:15 AM,59.9,59.7,99,30.14,1.2,Calm,Calm,-,N/A,,Mist,0,2013-09-05 09:15:00
4:35 AM,59.7,59.4,99,30.14,2.0,Calm,Calm,-,N/A,,Clear,0,2013-09-05 09:35:00
4:55 AM,59.4,59.4,100,30.15,3.0,Calm,Calm,-,N/A,,Clear,0,2013-09-05 09:55:00
5:15 AM,59.7,59.5,99,30.16,5.0,Calm,Calm,-,N/A,,Clear,0,2013-09-05 10:15:00
5:35 AM,59.9,59.7,99,30.16,2.0,Calm,Calm,-,N/A,,Mist,0,2013-09-05 10:35:00
5:55 AM,59.9,59.9,100,30.16,1.2,Calm,Calm,-,N/A,,Mist,0,2013-09-05 10:55:00
6:15 AM,59.4,59.2,99,30.16,1.5,Calm,Calm,-,N/A,,Mist,0,2013-09-05 11:15:00
6:35 AM,59.2,59.2,100,30.16,0.2,Calm,Calm,-,N/A,Fog,Fog,0,2013-09-05 11:35:00
6:55 AM,59.0,59.0,100,30.17,0.2,Calm,Calm,-,N/A,Fog,Fog,0,2013-09-05 11:55:00
7:15 AM,59.9,59.9,100,30.17,0.2,Calm,Calm,-,N/A,Fog,Fog,0,2013-09-05 12:15:00
7:35 AM,61.9,61.9,100,30.17,2.5,Calm,Calm,-,N/A,,Scattered Clouds,0,2013-09-05 12:35:00
7:55 AM,64.0,63.5,98,30.18,7.0,Calm,Calm,-,N/A,,Clear,0,2013-09-05 12:55:00
8:15 AM,65.7,64.2,95,30.19,7.0,Calm,Calm,-,N/A,,Clear,0,2013-09-05 13:15:00
8:35 AM,67.6,64.9,91,30.19,10.0,Calm,Calm,-,N/A,,Clear,0,2013-09-05 13:35:00
8:55 AM,70.5,65.1,83,30.19,10.0,Calm,Calm,-,N/A,,Clear,0,2013-09-05 13:55:00
9:15 AM,73.2,65.5,77,30.19,10.0,Calm,Calm,-,N/A,,Clear,0,2013-09-05 14:15:00
9:35 AM,75.0,65.8,73,30.19,10.0,NNE,4.6,-,N/A,,Clear,30,2013-09-05 14:35:00
9:55 AM,76.8,66.4,70,30.20,10.0,Calm,Calm,-,N/A,,Clear,0,2013-09-05 14:55:00
10:15 AM,78.8,65.7,64,30.20,10.0,North,5.8,-,N/A,,Clear,10,2013-09-05 15:15:00
10:35 AM,79.3,63.5,58,30.21,10.0,NNE,8.1,-,N/A,,Clear,20,2013-09-05 15:35:00
10:55 AM,79.9,62.8,56,30.21,10.0,North,5.8,-,N/A,,Clear,360,2013-09-05 15:55:00
11:15 AM,80.4,62.2,54,30.21,10.0,NNE,5.8,-,N/A,,Clear,30,2013-09-05 16:15:00
11:35 AM,80.4,62.8,55,30.20,10.0,NNW,3.5,-,N/A,,Clear,330,2013-09-05 16:35:00
11:55 AM,81.5,63.1,54,30.20,10.0,ENE,5.8,-,N/A,,Clear,60,2013-09-05 16:55:00
12:15 PM,81.5,62.6,53,30.20,10.0,North,4.6,-,N/A,,Clear,360,2013-09-05 17:15:00
12:35 PM,81.3,62.4,52,30.20,10.0,Calm,Calm,-,N/A,,Clear,0,2013-09-05 17:35:00
12:55 PM,82.0,62.1,51,30.19,10.0,Calm,Calm,-,N/A,,Clear,0,2013-09-05 17:55:00
1:15 PM,82.6,63.1,52,30.19,10.0,Calm,Calm,-,N/A,,Clear,0,2013-09-05 18:15:00
1:35 PM,82.4,63.5,53,30.18,10.0,Calm,Calm,-,N/A,,Clear,0,2013-09-05 18:35:00
1:55 PM,82.9,62.6,50,30.17,10.0,NW,4.6,-,N/A,,Clear,320,2013-09-05 18:55:00
2:15 PM,83.7,62.4,49,30.17,10.0,ENE,5.8,-,N/A,,Clear,60,2013-09-05 19:15:00
2:35 PM,84.2,62.6,48,30.16,10.0,North,3.5,-,N/A,,Clear,360,2013-09-05 19:35:00
2:55 PM,84.4,62.1,47,30.15,10.0,North,4.6,-,N/A,,Clear,360,2013-09-05 19:55:00
3:15 PM,84.0,61.5,47,30.15,10.0,NE,5.8,-,N/A,,Clear,50,2013-09-05 20:15:00
3:35 PM,84.0,61.9,47,30.15,10.0,NW,3.5,-,N/A,,Clear,320,2013-09-05 20:35:00
3:55 PM,83.1,62.4,49,30.15,10.0,NNE,3.5,-,N/A,,Clear,20,2013-09-05 20:55:00
4:15 PM,82.9,61.7,49,30.15,10.0,North,3.5,-,N/A,,Clear,10,2013-09-05 21:15:00
4:35 PM,82.8,62.4,50,30.15,10.0,NNE,4.6,-,N/A,,Clear,20,2013-09-05 21:35:00
4:55 PM,82.9,62.4,50,30.15,10.0,North,3.5,-,N/A,,Clear,350,2013-09-05 21:55:00
5:15 PM,82.4,63.0,52,30.15,10.0,Calm,Calm,-,N/A,,Clear,0,2013-09-05 22:15:00
5:35 PM,82.2,64.0,54,30.14,10.0,Calm,Calm,-,N/A,,Clear,0,2013-09-05 22:35:00
5:55 PM,80.8,64.9,58,30.14,10.0,Calm,Calm,-,N/A,,Clear,0,2013-09-05 22:55:00
6:15 PM,79.2,66.0,64,30.14,10.0,Calm,Calm,-,N/A,,Clear,0,2013-09-05 23:15:00
6:35 PM,78.3,66.9,68,30.14,10.0,Calm,Calm,-,N/A,,Clear,0,2013-09-05 23:35:00
6:55 PM,76.5,67.8,75,30.14,10.0,Calm,Calm,-,N/A,,Clear,0,2013-09-05 23:55:00
7:15 PM,72.9,67.8,84,30.15,10.0,Calm,Calm,-,N/A,,Clear,0,2013-09-06 00:15:00
7:35 PM,70.9,66.9,87,30.15,10.0,Calm,Calm,-,N/A,,Clear,0,2013-09-06 00:35:00
7:55 PM,69.8,67.3,92,30.16,10.0,Calm,Calm,-,N/A,,Clear,0,2013-09-06 00:55:00
8:15 PM,68.7,66.7,93,30.16,10.0,Calm,Calm,-,N/A,,Clear,0,2013-09-06 01:15:00
8:35 PM,68.0,66.4,95,30.16,10.0,Calm,Calm,-,N/A,,Clear,0,2013-09-06 01:35:00
8:55 PM,67.3,66.2,96,30.16,10.0,Calm,Calm,-,N/A,,Clear,0,2013-09-06 01:55:00
9:15 PM,66.9,66.2,98,30.16,7.0,Calm,Calm,-,N/A,,Clear,0,2013-09-06 02:15:00
9:35 PM,66.6,66.0,98,30.17,7.0,Calm,Calm,-,N/A,,Clear,0,2013-09-06 02:35:00
9:55 PM,66.2,65.5,98,30.18,5.0,Calm,Calm,-,N/A,,Clear,0,2013-09-06 02:55:00
10:15 PM,65.5,64.9,98,30.18,4.0,Calm,Calm,-,N/A,,Clear,0,2013-09-06 03:15:00
10:35 PM,65.5,64.9,98,30.18,7.0,Calm,Calm,-,N/A,,Clear,0,2013-09-06 03:35:00
10:55 PM,65.3,64.6,98,30.18,7.0,Calm,Calm,-,N/A,,Clear,0,2013-09-06 03:55:00
11:15 PM,64.8,64.4,99,30.17,5.0,Calm,Calm,-,N/A,,Clear,0,2013-09-06 04:15:00
11:35 PM,64.4,64.0,99,30.17,3.0,Calm,Calm,-,N/A,,Clear,0,2013-09-06 04:35:00
11:55 PM,64.0,63.7,99,30.17,3.0,Calm,Calm,-,N/A,,Clear,0,2013-09-06 04:55:00